Regional Weather Roundup
Issued by NWS

Home | Current Version | Previous Version | Text Only | Print | Product List | Glossary On
Versions: 1 2 3 4 5 6 7 8 9 10 11 12 13 14 15 16 17 18 19 20 21 22 23 24 25 26 27 28 29 30 31 32 33 34 35 36 37 38 39 40 41 42 43 44 45 46 47 48 49 50
000
ASUS45 KBOI 202210
RWRID

IDAHO REGIONAL WEATHER ROUNDUP
NATIONAL WEATHER SERVICE BOISE ID
400 PM MDT THU JUL 20 2017

NOTE: "FAIR" INDICATES FEW OR NO CLOUDS BELOW 12000 FEET
WITH NO SIGNIFICANT WEATHER AND/OR OBSTRUCTIONS TO VISIBILITY

IDZ012-014-202300-
SOUTHWEST IDAHO


CITY           SKY/WX    TMP DP  RH WIND       PRES   REMARKS
BOISE          SUNNY     90  41  18 N12G20    30.01F
CALDWELL       SUNNY     91  46  21 NW9       29.97F
MOUNTAIN HOME  SUNNY     93  42  17 NW12G21   29.99F
$$

IDZ016-017-202300-
SOUTHCENTRAL IDAHO


CITY           SKY/WX    TMP DP  RH WIND       PRES   REMARKS
BURLEY         SUNNY     85  43  22 W10       30.03F
JEROME         SUNNY     90  30  11 W15       30.05F
TWIN FALLS     SUNNY     89  37  16 W14G20    30.06F
$$

IDZ019>023-202300-
SOUTHEAST IDAHO


CITY           SKY/WX    TMP DP  RH WIND       PRES   REMARKS
IDAHO FALLS    CLOUDY    85  51  31 S13       30.06F
POCATELLO      CLOUDY    91  33  12 SW14      30.05F
REXBURG        CLOUDY    86  52  30 S14       30.06F
$$

IDZ006-010-011-018-031-032-202300-
CENTRAL IDAHO MOUNTAINS


CITY           SKY/WX    TMP DP  RH WIND       PRES   REMARKS
MCCALL         SUNNY     81  30  15 S17G24    30.11F
HAILEY         SUNNY     84  36  17 W10G18    30.12
STANLEY          N/A     81  17   9 SW14G23   30.19F
SALMON         NOT AVBL
CHALLIS        SUNNY     91  17   6 SW16G24   30.01F
$$

IDZ002-004-006-007-026-202300-
NORTHERN IDAHO


CITY           SKY/WX    TMP DP  RH WIND       PRES   REMARKS
LEWISTON       SUNNY     87  39  18 N16       29.98F
LOWELL           N/A     92  47  21 NW5       29.94F
COEUR D`ALENE  MOSUNNY   80  44  27 W15G23    30.03F
MULLAN PASS    MOSUNNY   66  41  40 VRB5      30.18S
$$



USA.gov is the U.S. government's official web portal to all federal, state and local government web resources and services.